Hourly Data Report for September 30, 2022

KUGAARUK CLIMATE
NUNAVUT
Current Station Operator: ECCC - MSC

68°32'15.060" N
89°47'47.020" W
15.80 m
2303094
71407
NBB

Download Data

Hourly Data (September 2022)
Hourly Data Report for September 30, 2022
TIME
LST
Temp Definition
°C
Dew Point Definition
°C
Rel Hum Definition
%
Precip. Amount Definition
mm

Wind Dir Definition
10's deg

Wind Spd Definition
km/h
Visibility Definition
km
Stn Press Definition
kPa
Hmdx Definition


Wind Chill Definition


Weather Definition


00:00 -1.6 -4.1 83 0.0 34 34   101.52   -9 LegendNANA
01:00 -1.6 -4.4 81 0.0 34 29   101.60   -8 LegendNANA
02:00 -1.9 -4.7 81 0.0 35 25   101.68   -8 LegendNANA
03:00 -1.9 -4.4 83 0.0 36 25   101.75   -8 LegendNANA
04:00 -2.3 -5.4 79 0.0 35 29   101.83   -9 LegendNANA
05:00 -2.0 -5.0 80 0.0 35 24   101.88   -8 LegendNANA
06:00 -1.8 -5.1 78 0.0 34 22   101.96   -8 LegendNANA
07:00 -1.7 -4.5 82 0.0 34 22   101.97   -8 LegendNANA
08:00 -1.5 -5.2 76 0.0 35 30   102.00   -8 LegendNANA
09:00 -1.3 -4.6 78 0.0 33 25   102.03   -8 LegendNANA
10:00 -1.1 -5.1 75 0.0 33 29   102.06   -8 LegendNANA
11:00 -0.9 -4.9 74 0.0 34 28   102.09   -7 LegendNANA
12:00 -1.1 -4.8 76 0.0 34 31   102.16   -8 LegendNANA
13:00 -1.6 -4.6 80 0.0 34 30   102.23   -9 LegendNANA
14:00 -1.8 -4.5 82 0.0 32 28   102.26   -9 LegendNANA
15:00 -2.1 -4.8 81 0.0 32 25   102.31   -9 LegendNANA
16:00 -2.4 -5.8 77 0.0 33 26   102.33   -9 LegendNANA
17:00 -2.4 -5.2 81 0.0 32 16   102.34   -8 LegendNANA
18:00 -2.7 -5.4 81 0.0 32 17   102.35   -8 LegendNANA
19:00 -3.2 -5.9 81 0.0 31 10   102.34   -7 LegendNANA
20:00 -3.2 -6.0 81 0.0 29 13   102.35   -8 LegendNANA
21:00 -3.5 -5.9 84 0.0 29 14   102.33   -9 LegendNANA
22:00 -3.9 -5.9 86 0.0 27 16   102.27   -9 LegendNANA
23:00 -4.3 -5.8 90 0.0 25 18   102.23   -10 LegendNANA

Notes on Data Quality.

Legend

  • E = Estimated
  • M = Missing
  • NA = Not Available*
  • [empty] = Indicates an unobserved value
Date modified: